星链-36205(STARLINK-36205)

导读 | 豆包AI

STARLINK-36205是美国SpaceX公司星链(Starlink)星座的卫星,于2025年12月14日发射。星链是全球低轨卫星互联网星座,旨在实现全球高速互联网覆盖,这颗卫星延续星链设计,运行于低地球轨道,支持Ku、Ka波段通信及激光星间链路,可为全球各地尤其是偏远地区提供互联网接入服务,进一步扩充星链星座组网规模,提升星座服务容量与覆盖能力。

基本信息
目录编号:
67098
目录名称:
STARLINK-36205
国际标识:
2025-298Z
轨道中心:
EARTH
卫星名称:
星链-36205
卫星全名:
星链-36205(STARLINK-36205)
卫星状态:
在轨 (已飞行90 天)
发射日期:
2025-12-14 UTC
国别 :
美国 (US)
星等 :
--
轨道信息
数据来源 国际轨道数据
星历时间: 2026-03-13T12:54:54+0800
22小时前
查看轨道信息
半长轴: 6947.652km
偏心率: 0.0003065
轨道倾角: 70.001°
近地点辐角 272.493°
升交点赤经 5.605°
平近点角 87.588°
近地点: 567.385km
远地点: 571.645km
周期: 96.054分钟
每日圈数: 14.991521
详细信息
固有亮度:
5
最大亮度:
2.5
卫星平台:
Starlink V1.0
覆盖范围:
全球
运营商:
太空探索技术公司
运营商所在国:
美国
制造商(研发单位):
太空探索技术公司
制造商所在国:
美国
使用方式:
暂无
卫星简介
Starlink 计划是 SpaceX 推出的全球卫星互联网项目,通过发射低轨道卫星,为全球尤其是偏远地区提供高速、低延迟的互联网服务。自 2019 年起,Starlink 已部署数千颗卫星,旨在缩小全球数字鸿沟,推动互联网普及。该项目还为军事、航空等行业提供通信支持,带来广泛经济效益。
2D轨道图
3D轨道图
轨道高度分析图
轨道倾角分析图
轨道综合分析图
查看轨道综合分析图